Location: Chervonnoye
(48.6000°N, 34.4000°E)
Time: 16:44:15
(UTC+00:00)

UKube-1 - Pass Details

Date: 07 December 2021
Orbit: 610 x 618 km, 98.4° (Epoch: 20 January)

Event Time Altitude Azimuth Distance (km) Brightness Sun altitude
Rises 04:34:32 0° 128° (SE) 2,885 ? -7.4°
Reaches altitude 10° 04:37:04 10° 113° (ESE) 1,984 ? -7.0°
Maximum altitude 04:40:24 23° 62° (ENE) 1,346 ? -6.5°
Drops below altitude 10° 04:43:46 10° 11° (NNE) 1,993 ? -6.0°
Sets 04:46:19 0° 357° (N) 2,902 ? -5.7°
